Temp
-6 -6 -6 -6 -6 -6 -6 -6 -6 -6 -6 -5 -5 -5 -5 -5 -5 -5 -5 -5 -5 -5 -4 -5 -5 -5 -5 -5 -5 -5 -5 -5 -6 -6 -6 -6 -6 -6 -6 -6 -7 -7 -7
-6 -6 -6 -6 -6 -6 -6 -6 -6 -6 -6 -6 -6 -6 -5 -5 -5 -5 -5 -5 -5 -5 -5 -5 -5 -5 -5 -5 -5 -5 -5 -5 -5 -6 -6 -6 -6 -6 -6 -7 -7 -7 -7
-7 -7 -6 -6 -6 -6 -6 -6 -6 -6 -6 -6 -6 -6 -6 -5 -5 -5 -5 -5 -5 -5 -5 -5 -5 -5 -5 -5 -5 -5 -5 -5 -5 -6 -6 -6 -6 -6 -6 -7 -7 -7 -7
-7 -7 -7 -6 -6 -6 -6 -6 -6 -6 -6 -6 -6 -5 -6 -6 -6 -6 -5 -5 -5 -5 -5 -5 -5 -5 -5 -5 -5 -5 -5 -5 -5 -6 -6 -6 -6 -6 -6 -7 -7 -7 -7
-7 -7 -7 -7 -7 -7 -6 -6 -6 -6 -6 -6 -6 -6 -6 -6 -6 -6 -6 -6 -5 -5 -5 -5 -5 -5 -5 -5 -5 -5 -5 -5 -5 -6 -6 -6 -6 -6 -6 -7 -7 -7 -7
-7 -7 -7 -7 -7 -7 -7 -6 -6 -7 -7 -7 -6 -6 -6 -6 -6 -6 -6 -6 -6 -6 -5 -5 -5 -5 -5 -5 -5 -5 -5 -6 -6 -6 -6 -6 -6 -6 -6 -6 -7 -7 -7
-7 -7 -7 -7 -7 -7 -7 -7 -7 -6 -7 -7 -7 -7 -6 -6 -6 -6 -6 -6 -6 -6 -6 -6 -5 -5 -5 -6 -6 -6 -6 -6 -6 -6 -6 -6 -6 -6 -6 -6 -6 -7 -7
-7 -7 -7 -7 -8 -8 -7 -8 -7 -7 -7 -7 -7 -7 -7 -7 -6 -6 -7 -7 -7 -6 -6 -6 -6 -6 -6 -6 -6 -6 -6 -6 -6 -6 -6 -6 -6 -6 -6 -6 -7 -7 -7
-7 -7 -7 -7 -7 -8 -8 -7 -8 -8 -7 -7 -7 -7 -7 -7 -7 -7 -7 -7 -7 -7 -6 -6 -6 -6 -6 -6 -6 -6 -6 -6 -6 -6 -6 -6 -6 -6 -6 -7 -7 -7 -7
-8 -7 -7 -7 -7 -8 -8 -8 -8 -7 -7 -8 -7 -7 -7 -8 -8 -8 -7 -7 -7 -7 -7 -7 -7 -7 -6 -6 -6 -6 -6 -6 -6 -6 -6 -6 -6 -7 -7 -7 -7 -7 -7
-8 -8 -8 -7 -7 -7 -8 -8 -8 -8 -8 -8 -8 -8 -7 -7 -7 -8 -8 -8 -7 -7 -7 -7 -7 -7 -7 -7 -7 -7 -6 -6 -6 -6 -6 -6 -7 -7 -7 -7 -7 -7 -7
-8 -8 -8 -8 -8 -7 -7 -8 -8 -8 -8 -8 -8 -8 -8 -7 -7 -7 -8 -8 -8 -8 -8 -8 -7 -7 -7 -7 -7 -7 -7 -7 -7 -7 -7 -7 -7 -7 -7 -7 -7 -7 -7
-8 -8 -8 -8 -8 -8 -8 -7 -8 -8 -8 -8 -8 -8 -8 -7 -7 -7 -8 -8 -9 -8 -8 -8 -8 -7 -7 -7 -7 -7 -7 -7 -7 -7 -7 -7 -7 -7 -7 -7 -7 -7 -7
-8 -9 -8 -8 -8 -8 -8 -8 -8 -8 -8 -8 -8 -8 -8 -8 -8 -7 -7 -7 -8 -8 -8 -8 -8 -8 -8 -8 -8 -8 -8 -8 -8 -8 -8 -7 -7 -7 -7 -7 -7 -7 -8
-9 -9 -9 -9 -9 -9 -9 -8 -8 -8 -8 -8 -8 -8 -8 -8 -8 -8 -8 -8 -8 -8 -8 -8 -9 -9 -9 -9 -9 -9 -9 -8 -8 -8 -8 -8 -8 -8 -8 -8 -8 -8 -8
-10 -10 -10 -9 -9 -9 -10 -10 -9 -9 -9 -8 -8 -8 -8 -8 -9 -8 -8 -8 -8 -8 -8 -8 -8 -9 -9 -10 -9 -9 -9 -9 -9 -9 -8 -8 -8 -8 -8 -8 -8 -8 -8
-10 -10 -10 -10 -10 -9 -10 -10 -10 -9 -9 -8 -8 -8 -8 -8 -9 -9 -9 -9 -9 -8 -8 -8 -8 -9 -9 -9 -9 -9 -9 -9 -9 -9 -9 -9 -9 -9 -9 -8 -8 -8 -8
-10 -10 -11 -10 -10 -10 -10 -10 -10 -10 -10 -9 -8 -8 -9 -9 -9 -9 -9 -9 -8 -8 -8 -8 -8 -8 -9 -8 -8 -9 -9 -9 -10 -10 -10 -10 -10 -9 -9 -9 -9 -9 -9
-11 -10 -11 -11 -10 -10 -10 -10 -11 -10 -10 -10 -9 -9 -9 -9 -10 -9 -9 -9 -8 -8 -8 -8 -8 -9 -9 -10 -10 -9 -9 -9 -10 -10 -10 -10 -10 -10 -10 -9 -9 -9 -9
-12 -11 -11 -11 -11 -10 -10 -10 -11 -11 -11 -11 -10 -10 -10 -10 -10 -10 -10 -10 -9 -8 -9 -9 -9 -9 -10 -11 -10 -10 -9 -10 -10 -10 -11 -10 -11 -11 -10 -10 -10 -10 -9
-12 -12 -12 -12 -12 -11 -10 -10 -11 -11 -11 -11 -11 -11 -11 -11 -10 -10 -10 -11 -10 -9 -10 -9 -10 -10 -11 -11 -10 -11 -11 -11 -10 -11 -11 -11 -11 -11 -11 -10 -10 -10 -10
-12 -12 -12 -11 -11 -11 -11 -10 -11 -12 -12 -12 -12 -12 -11 -11 -11 -11 -11 -11 -11 -11 -11 -10 -10 -11 -10 -11 -10 -11 -10 -11 -11 -11 -11 -11 -11 -11 -11 -10 -10 -11 -11
-13 -12 -12 -12 -12 -11 -11 -11 -11 -11 -12 -12 -12 -12 -12 -12 -12 -11 -11 -11 -11 -11 -11 -11 -11 -11 -11 -11 -11 -11 -11 -11 -11 -12 -11 -11 -11 -11 -11 -11 -11 -11 -11
-16 -15 -14 -14 -14 -13 -12 -11 -11 -11 -12 -13 -13 -13 -13 -12 -12 -12 -12 -12 -12 -12 -12 -11 -11 -12 -11 -11 -11 -11 -11 -11 -11 -11 -11 -12 -12 -12 -11 -11 -11 -11 -12
-17 -17 -17 -16 -15 -15 -15 -14 -13 -13 -13 -13 -13 -14 -13 -13 -13 -12 -12 -12 -12 -12 -11 -11 -11 -12 -12 -11 -11 -11 -11 -11 -11 -10 -12 -12 -12 -11 -12 -12 -11 -12 -13
-17 -17 -18 -18 -16 -16 -15 -15 -14 -15 -14 -14 -14 -14 -14 -14 -13 -13 -13 -13 -12 -12 -12 -12 -11 -12 -12 -12 -11 -11 -11 -11 -10 -10 -11 -12 -12 -12 -12 -12 -12 -13 -13
Height
5870 5873 5875 5877 5878 5879 5880 5881 5883 5883 5884 5885 5886 5888 5888 5889 5889 5889 5888 5887 5887 5887 5888 5888 5888 5888 5887 5886 5886 5886 5886 5886 5886 5886 5886 5885 5885 5884 5883 5883 5881 5880 5878
5868 5869 5871 5873 5874 5875 5877 5878 5880 5881 5882 5883 5884 5885 5887 5888 5888 5888 5887 5887 5886 5886 5887 5888 5887 5887 5887 5886 5885 5885 5885 5885 5885 5885 5885 5884 5884 5883 5883 5882 5881 5880 5878
5865 5866 5868 5870 5870 5871 5873 5875 5877 5878 5880 5881 5882 5883 5884 5885 5886 5886 5886 5886 5885 5885 5885 5885 5886 5886 5886 5886 5885 5885 5884 5884 5884 5884 5884 5883 5883 5882 5882 5881 5880 5879 5878
5862 5863 5865 5866 5867 5867 5869 5871 5873 5875 5877 5878 5879 5880 5881 5882 5884 5884 5884 5884 5884 5884 5884 5884 5884 5885 5885 5885 5884 5884 5883 5883 5882 5883 5883 5882 5882 5881 5881 5880 5879 5878 5877
5858 5859 5861 5862 5863 5864 5865 5866 5868 5870 5872 5874 5876 5877 5878 5879 5880 5882 5882 5882 5881 5882 5883 5882 5882 5883 5883 5883 5883 5883 5883 5882 5881 5881 5881 5881 5880 5880 5879 5878 5878 5877 5876
5853 5855 5857 5859 5859 5860 5862 5863 5863 5865 5868 5870 5871 5873 5874 5876 5877 5878 5879 5879 5880 5880 5880 5880 5880 5880 5881 5881 5881 5881 5881 5881 5880 5880 5879 5879 5878 5878 5878 5877 5876 5875 5874
5849 5850 5852 5855 5855 5856 5858 5859 5860 5861 5862 5865 5867 5869 5870 5872 5873 5874 5875 5876 5877 5877 5878 5878 5878 5878 5878 5878 5879 5879 5879 5879 5879 5878 5878 5877 5876 5876 5876 5875 5875 5874 5872
5843 5846 5847 5849 5851 5852 5854 5855 5856 5857 5858 5859 5861 5863 5865 5867 5868 5870 5871 5872 5873 5874 5874 5875 5875 5875 5875 5875 5875 5876 5876 5876 5876 5875 5875 5875 5874 5874 5873 5873 5872 5871 5870
5836 5839 5841 5844 5845 5848 5849 5850 5852 5853 5854 5855 5856 5858 5859 5862 5864 5865 5866 5868 5868 5869 5870 5871 5872 5872 5872 5872 5872 5871 5872 5872 5872 5872 5872 5871 5871 5871 5870 5870 5869 5868 5867
5828 5832 5835 5837 5840 5843 5844 5846 5847 5848 5850 5851 5853 5853 5855 5856 5858 5860 5860 5862 5863 5865 5865 5866 5866 5868 5868 5868 5868 5868 5867 5868 5868 5868 5868 5868 5868 5867 5867 5866 5865 5865 5863
5821 5824 5827 5830 5833 5837 5838 5840 5841 5843 5844 5846 5848 5849 5850 5850 5851 5853 5855 5857 5858 5859 5860 5861 5861 5862 5863 5864 5864 5864 5864 5864 5864 5864 5864 5863 5863 5863 5862 5861 5861 5860 5858
5812 5815 5819 5822 5825 5829 5831 5835 5837 5837 5839 5840 5841 5843 5844 5846 5846 5847 5849 5849 5852 5853 5854 5855 5856 5857 5858 5859 5859 5860 5860 5861 5860 5860 5859 5859 5858 5858 5858 5857 5856 5855 5854
5804 5807 5809 5812 5815 5819 5823 5826 5829 5832 5833 5834 5835 5837 5839 5839 5841 5841 5843 5844 5845 5846 5847 5848 5850 5851 5852 5853 5853 5854 5855 5855 5855 5855 5855 5854 5853 5853 5852 5852 5852 5851 5849
5793 5797 5800 5803 5805 5809 5813 5817 5819 5824 5826 5828 5829 5830 5832 5833 5835 5836 5837 5837 5838 5839 5840 5841 5843 5845 5846 5847 5848 5849 5850 5850 5850 5850 5850 5849 5849 5849 5848 5848 5847 5846 5844
5784 5785 5789 5792 5795 5798 5802 5806 5810 5813 5818 5819 5821 5823 5825 5827 5828 5829 5830 5830 5832 5832 5833 5834 5835 5836 5839 5840 5842 5843 5844 5845 5845 5845 5845 5844 5844 5843 5843 5842 5842 5840 5838
5771 5774 5776 5781 5784 5787 5791 5795 5799 5804 5807 5810 5812 5815 5818 5819 5820 5823 5824 5824 5824 5826 5827 5828 5829 5829 5831 5833 5835 5836 5837 5838 5838 5839 5839 5838 5838 5837 5837 5836 5834 5833 5831
5759 5762 5763 5767 5771 5775 5779 5783 5787 5793 5797 5799 5803 5806 5809 5811 5813 5815 5816 5817 5817 5819 5820 5821 5822 5823 5824 5825 5826 5828 5829 5830 5831 5832 5832 5832 5831 5831 5830 5829 5828 5826 5824
5748 5750 5751 5755 5758 5761 5765 5769 5774 5779 5784 5789 5793 5796 5799 5801 5804 5806 5809 5809 5809 5812 5814 5814 5815 5816 5817 5817 5819 5820 5821 5822 5822 5822 5823 5824 5823 5822 5822 5821 5819 5818 5816
5735 5737 5739 5741 5745 5748 5751 5755 5761 5766 5770 5776 5781 5785 5788 5791 5795 5797 5799 5801 5802 5805 5807 5807 5808 5809 5810 5811 5812 5812 5813 5814 5815 5814 5814 5813 5813 5813 5812 5812 5811 5810 5808
5719 5721 5723 5725 5730 5733 5736 5741 5748 5753 5758 5762 5767 5772 5777 5782 5785 5787 5790 5792 5794 5795 5798 5800 5799 5799 5802 5803 5803 5805 5805 5805 5805 5806 5805 5803 5801 5802 5803 5801 5803 5801 5800
5702 5704 5707 5707 5711 5715 5722 5728 5734 5740 5746 5751 5756 5761 5767 5771 5777 5778 5781 5783 5784 5787 5789 5790 5792 5793 5793 5792 5794 5796 5795 5796 5796 5796 5796 5795 5794 5793 5793 5791 5791 5790 5789
5680 5684 5687 5691 5691 5697 5704 5711 5717 5723 5731 5737 5743 5749 5754 5758 5764 5770 5770 5774 5775 5778 5779 5781 5782 5784 5786 5785 5786 5785 5786 5786 5787 5787 5785 5786 5784 5782 5782 5781 5781 5781 5778
5656 5659 5662 5667 5672 5680 5685 5692 5700 5705 5714 5721 5728 5736 5741 5745 5751 5756 5759 5761 5763 5767 5770 5771 5773 5774 5777 5776 5777 5776 5775 5778 5775 5776 5773 5775 5773 5772 5771 5772 5770 5768 5767
5635 5637 5641 5644 5650 5657 5664 5674 5681 5690 5699 5710 5717 5721 5726 5733 5738 5743 5748 5751 5755 5757 5760 5761 5763 5764 5765 5767 5766 5766 5765 5765 5766 5764 5762 5762 5762 5761 5761 5761 5759 5758 5756
5620 5622 5624 5627 5633 5639 5646 5654 5663 5674 5684 5693 5699 5705 5712 5718 5723 5728 5734 5740 5743 5747 5749 5750 5753 5755 5755 5755 5755 5755 5754 5752 5751 5751 5752 5750 5749 5748 5748 5749 5749 5748 5748
5605 5609 5613 5615 5619 5625 5631 5638 5648 5659 5669 5677 5684 5692 5699 5707 5713 5718 5722 5728 5732 5735 5738 5740 5742 5744 5746 5745 5743 5741 5740 5738 5737 5736 5737 5738 5737 5737 5735 5737 5738 5738 5739
Wind_Speed
21 31 31 28 28 27 24 21 19 19 17 15 12 9 7 6 8 8 5 5 4 4 5 5 5 7 6 6 5 4 2 3 4 5 6 6 6 7 7 10 13 13 11
14 17 28 32 31 31 30 28 25 23 21 19 17 14 11 8 7 8 9 5 5 5 6 5 4 5 6 4 4 3 3 2 3 4 5 6 6 6 6 9 11 13 12
17 15 14 19 29 34 35 32 29 27 25 23 21 19 16 13 11 9 9 10 7 6 6 6 6 4 3 4 2 2 2 2 2 3 4 5 6 6 7 8 11 12 12
23 20 18 18 18 20 31 38 35 32 28 27 25 23 21 17 15 12 11 10 12 8 7 8 8 7 4 1 1 0 1 1 1 2 3 5 6 7 8 9 10 11 11
26 24 22 21 19 19 20 23 36 39 35 31 28 26 24 22 19 16 14 13 13 13 10 10 10 9 8 5 3 2 3 3 3 3 3 5 5 7 8 9 10 12 12
30 29 27 23 22 22 20 19 21 32 37 35 32 30 27 25 22 19 18 17 15 15 15 11 10 11 11 9 7 5 5 4 5 5 5 6 6 7 8 10 11 13 13
36 33 31 27 25 24 22 20 19 19 27 35 34 32 31 28 26 23 20 20 17 16 16 17 13 13 13 12 11 10 8 8 7 7 8 8 8 8 9 10 12 13 14
42 38 35 33 30 28 26 23 22 19 18 21 30 35 35 32 29 27 24 22 21 19 18 18 19 16 15 15 14 14 13 12 11 11 11 11 11 11 11 12 13 14 15
47 44 41 38 35 31 30 28 26 24 22 20 20 24 30 35 34 31 29 27 25 24 22 20 19 21 20 18 17 16 17 17 16 15 14 15 15 15 15 15 16 16 17
48 49 46 43 40 34 34 33 31 28 27 25 24 22 23 27 33 34 33 28 28 27 26 24 22 21 23 23 21 20 20 20 20 19 19 18 18 18 19 19 19 20 20
50 50 50 49 46 42 38 37 35 33 31 29 27 26 24 24 25 31 35 34 32 30 28 27 26 25 24 24 25 24 23 23 23 23 22 22 22 21 22 22 21 22 23
51 51 51 51 51 49 46 42 40 38 35 34 31 29 27 25 24 24 29 34 35 35 34 31 30 29 28 27 27 26 25 26 25 25 25 25 25 25 25 25 25 25 26
54 53 53 53 53 52 51 49 45 43 41 39 37 34 32 30 29 27 24 25 31 35 36 36 35 34 32 31 30 29 29 28 27 28 28 28 28 28 28 28 28 28 29
57 56 56 55 55 55 53 53 52 48 45 44 42 40 38 37 32 31 30 30 30 31 33 35 36 36 35 35 33 32 31 31 30 30 31 31 31 31 31 30 30 30 31
57 59 59 59 58 58 56 56 55 54 50 47 46 46 42 41 37 35 35 34 32 33 32 33 34 35 36 37 35 35 34 34 34 34 33 33 33 34 33 32 33 33 33
49 57 60 62 62 62 60 58 57 57 53 53 49 47 46 45 43 40 39 38 36 36 35 34 35 36 36 37 37 37 36 37 37 37 37 36 35 36 36 35 35 36 36
49 52 53 62 64 65 64 62 60 57 55 52 52 49 48 49 48 43 43 43 42 39 37 35 33 33 33 33 36 38 40 40 41 40 40 40 39 38 39 38 39 39 38
57 55 53 55 61 67 67 66 64 63 62 62 60 54 53 51 52 49 47 47 46 43 42 39 35 35 36 34 33 33 34 38 43 44 42 44 45 42 41 41 41 42 42
62 64 62 58 54 59 68 69 68 67 66 65 64 62 56 54 47 51 47 47 45 44 42 39 37 40 41 35 35 38 36 38 37 39 41 46 49 46 44 45 44 45 44
64 66 68 66 62 58 59 67 71 70 69 66 66 65 63 58 55 55 51 47 45 43 45 42 41 44 40 36 39 41 39 38 43 47 46 46 47 49 47 48 47 48 50
68 70 71 72 69 67 64 61 66 71 71 69 68 66 63 59 52 49 54 50 47 44 48 51 47 45 43 42 45 41 42 44 42 43 38 47 46 51 55 50 49 51 51
74 74 75 76 77 75 71 69 65 69 71 72 70 67 68 63 60 59 43 54 53 48 49 49 47 47 48 46 48 46 47 48 46 47 49 49 49 53 58 55 52 57 61
69 73 76 79 79 79 79 76 71 69 72 74 74 71 68 69 68 59 58 53 56 56 55 55 52 50 50 53 53 53 52 51 55 55 59 56 57 54 51 53 54 56 62
52 62 65 66 66 71 76 79 77 73 70 71 71 70 69 69 68 71 71 68 64 62 54 57 56 53 55 56 58 59 59 57 57 60 59 57 56 57 55 52 55 52 48
51 46 48 56 60 61 62 69 74 72 71 70 71 70 70 69 70 69 66 64 61 60 61 62 58 58 57 57 60 61 64 63 61 62 58 56 55 58 58 58 54 40 34
44 46 43 44 50 55 58 62 68 70 68 68 69 69 69 69 68 69 66 67 65 65 68 64 65 61 60 60 64 63 64 61 62 64 61 59 55 57 56 56 47 35 35
Wind_Direction
244 237 238 235 242 246 245 242 240 238 235 238 241 250 253 248 228 217 199 173 164 150 132 109 75 59 65 55 52 37 0 297 296 302 313 322 328 333 340 353 358 1 5
249 243 238 239 241 245 249 247 245 244 241 238 243 244 251 253 244 231 224 206 189 185 177 157 126 73 58 60 64 61 42 10 320 323 322 317 321 323 327 342 351 357 0
253 252 251 246 243 241 245 250 248 246 246 245 244 245 246 248 248 242 235 226 219 207 197 195 178 149 85 60 60 81 74 51 2 336 323 318 319 316 314 325 338 348 351
251 251 253 251 250 248 247 245 247 249 247 246 246 247 246 246 247 246 244 235 228 224 211 207 211 194 175 114 42 248 179 167 246 304 315 316 312 308 304 314 322 327 334
249 249 248 252 256 255 251 249 248 246 245 246 245 246 248 248 246 246 247 242 239 231 228 218 215 213 207 201 227 259 240 233 241 255 275 286 294 295 296 298 307 313 322
244 248 248 250 254 255 256 254 254 248 245 245 246 246 247 249 249 246 245 247 242 239 235 235 229 223 220 220 222 234 260 258 263 260 264 272 278 286 293 297 301 306 311
247 244 247 248 249 254 256 257 261 259 249 246 248 249 249 247 248 246 244 247 248 247 244 236 234 232 230 229 232 234 242 255 261 266 266 265 269 276 283 292 298 299 304
248 247 247 246 245 249 253 253 253 253 254 253 248 248 251 251 249 248 245 245 247 247 249 247 240 239 237 235 235 239 243 246 252 259 266 269 269 270 275 283 289 294 297
246 248 248 248 243 244 248 249 253 251 247 249 254 254 252 251 251 249 249 246 246 246 248 250 251 246 243 243 239 238 242 245 249 252 256 262 268 271 273 274 279 287 293
243 245 248 248 248 244 243 247 248 247 251 248 248 253 259 253 251 250 248 248 248 247 247 247 248 251 250 248 248 246 244 245 247 248 252 258 264 268 271 272 274 278 284
243 244 245 247 247 248 248 244 246 248 248 250 250 248 251 255 254 250 250 248 249 252 250 251 251 252 253 252 251 253 253 251 249 251 252 255 260 264 267 271 273 273 274
242 243 244 246 247 247 250 248 246 248 249 250 250 250 246 250 255 255 250 251 249 252 254 255 255 254 254 256 254 253 256 259 257 256 255 255 257 263 268 270 272 274 275
241 243 243 244 246 247 247 248 247 246 246 248 250 250 251 249 246 250 250 249 249 248 253 255 257 258 257 257 257 256 254 255 259 261 261 260 259 261 266 270 273 276 278
242 241 242 243 244 246 246 247 248 248 247 246 246 249 246 249 247 248 250 252 252 252 252 254 256 258 259 258 258 259 259 258 259 262 264 264 264 265 267 270 274 277 279
248 246 243 242 243 244 244 245 246 248 247 249 248 244 247 252 251 251 251 252 254 252 254 255 255 256 257 259 259 261 262 263 263 263 265 267 268 268 269 271 274 276 278
255 249 247 245 243 244 243 243 244 247 249 245 247 247 243 245 249 252 253 254 254 254 256 257 258 257 258 260 261 260 262 265 265 266 265 267 270 271 270 270 271 273 276
259 256 251 245 245 244 244 243 242 240 237 241 244 246 247 245 248 249 250 255 255 252 253 255 256 258 257 259 259 261 259 262 265 268 269 269 268 269 270 270 271 272 273
255 257 257 252 247 244 244 243 241 239 239 241 243 245 246 246 248 250 249 252 253 252 251 250 251 254 260 261 264 264 266 264 262 263 267 269 269 267 268 268 268 269 271
255 255 256 255 252 250 246 243 242 240 238 238 241 242 243 244 244 248 250 250 250 250 250 247 252 259 253 261 265 267 269 271 265 266 270 272 267 262 263 267 268 270 270
251 251 253 254 252 251 249 247 244 242 240 239 238 240 240 242 247 250 249 245 249 253 244 245 252 259 264 266 258 260 263 269 274 269 274 276 271 260 263 265 270 270 270
250 250 249 252 253 252 251 249 245 243 242 241 240 240 239 239 240 251 245 246 250 252 248 250 256 263 260 259 267 268 264 269 269 270 266 278 266 264 263 266 267 266 268
252 251 250 250 251 251 250 249 247 241 240 240 240 239 239 238 235 239 249 249 251 252 254 255 260 261 264 264 266 270 271 265 272 266 268 271 278 267 275 270 269 274 284
252 251 249 247 248 248 249 248 246 243 238 238 238 238 239 239 237 236 241 241 247 252 255 258 262 262 262 264 266 269 268 268 270 270 270 272 272 278 281 279 283 284 284
251 247 245 244 244 244 243 245 245 243 239 237 237 238 239 240 240 241 243 247 250 254 252 254 259 260 264 265 268 271 274 274 273 270 275 270 271 273 276 277 286 285 283
254 251 247 245 242 240 240 239 239 238 238 236 234 235 236 239 239 241 243 245 245 244 249 252 261 265 264 269 270 271 273 273 270 268 269 267 268 272 275 275 279 280 262
245 243 246 245 244 241 240 237 234 234 235 236 234 235 236 238 240 242 246 248 251 251 253 258 262 264 263 266 269 273 272 270 267 265 268 268 267 270 276 279 271 258 262